Regional Weather Roundup
Issued by NWS

Home | Current Version | Previous Version | Graphics & Text | Print | Product List | Glossary On
Versions: 1 2 3 4 5 6 7 8 9 10 11 12 13 14 15 16 17 18 19 20 21 22 23 24 25 26 27 28 29 30 31 32 33 34 35 36 37 38 39 40 41 42 43 44 45 46 47 48 49 50
000
ASUS43 KIND 060009
RWRIN

WEATHER ROUNDUP FOR INDIANA
NATIONAL WEATHER SERVICE INDIANAPOLIS IN
800 PM EDT SUN JUL 05 2015

NOTE: "FAIR" INDICATES FEW OR NO CLOUDS BELOW 12,000 FEET WITH NO
SIGNIFICANT WEATHER AND/OR OBSTRUCTIONS TO VISIBILITY.

* - STATION DOES NOT REPORT WEATHER SUCH AS PRECIPITATION OR FOG.

+ - STATION NOT QUALITY CONTROLLED BY THE NATIONAL WEATHER SERVICE.
    USE DATA WITH CAUTION...ESPECIALLY DEWPOINT AND RELATIVE
    HUMIDITY OBSERVATIONS.

INZ001>003-010>013-019-020-060100-
NORTHWEST INDIANA

CITY           SKY/WX    TMP DP  RH WIND       PRES   REMARKS
KNOX *+        SUNNY     79  59  50 S5        30.04S
LA PORTE +     SUNNY     80  64  57 CALM      30.06S
6HR MIN TEMP:  80; 6HR MAX TEMP:  84;

MICHIGAN CITY+ SUNNY     79  61  53 CALM      30.05S
MONTICELLO +   SUNNY     79  62  55 CALM      30.04S
6HR MIN TEMP:  79; 6HR MAX TEMP:  81;

RENSSELAER +   SUNNY     79  61  53 S3        30.05S
VALPARAISO     SUNNY     79  61  53 S3        30.05F
6HR MIN TEMP:  79; 6HR MAX TEMP:  83;


$$

LMZ046-743>745-060100-
SOUTHERN LAKE MICHIGAN

STATION/POSITION TIME  TEMP    WIND        PRES    WAVE
                       AIR SEA DIR/SP/G            HT
                 (UTC) (F)     (DEG/KT/KT) (MB)    (FT)
BURNS HARBOR     0000   72      60/  6/  7 1017.6F
MICHIGAN CITY    0000   71      30/  9/ 11   N/A
5NW MICH CITY    0000   70 68   70/  6/  8   N/A     1

$$

INZ004-005-014>016-021>024-060100-
NORTH CENTRAL INDIANA

CITY           SKY/WX    TMP DP  RH WIND       PRES   REMARKS
GOSHEN         MOSUNNY   80  63  55 SE5       30.06F
6HR MIN TEMP:  79; 6HR MAX TEMP:  83;

LOGANSPORT +   MOSUNNY   79  57  47 CALM      30.06S
PERU/GRISSOM   PTSUNNY   80  62  55 SE5       30.05S
6HR MIN TEMP:  79; 6HR MAX TEMP:  83;

ROCHESTER +    MOSUNNY   81  61  50 SW3       30.06F
SOUTH BEND     SUNNY     80  59  48 S9        30.05F
6HR MIN TEMP:  80; 6HR MAX TEMP:  84;

WARSAW +         N/A     79  63  57 SE3       30.06F

$$

INZ006>009-017-018-025>027-060100-
NORTHEAST INDIANA

CITY           SKY/WX    TMP DP  RH WIND       PRES   REMARKS
ANGOLA *+        N/A     82  75  78 SE6       30.08S
AUBURN +       PTSUNNY   73  61  64 SE3       30.08F
FORT WAYNE     PTSUNNY   77  61  57 CALM      30.07F
6HR MIN TEMP:  77; 6HR MAX TEMP:  82;

HUNTINGTON +   PTSUNNY   76  62  61 CALM      30.07S
6HR MIN TEMP:  76; 6HR MAX TEMP:  81;


$$

INZ028-029-035-036-043>045-051>053-060100-
WEST CENTRAL INDIANA

CITY           SKY/WX    TMP DP  RH WIND       PRES   REMARKS
GREENCASTLE +  PTSUNNY   77  61  57 SE5       30.06S
LAFAYETTE      SUNNY     79  64  60 CALM      30.04S
6HR MIN TEMP:  79; 6HR MAX TEMP:  82;

TERRE HAUTE    SUNNY     79  68  69 SE6       30.04S
6HR MIN TEMP:  79; 6HR MAX TEMP:  85;


$$

INZ030>032-037>040-046>048-054>057-064-065-060100-
CENTRAL INDIANA

CITY           SKY/WX    TMP DP  RH WIND       PRES   REMARKS
CP ATTERBURY + PTSUNNY   75  64  69 E3        30.07R
FRANKFORT +    PTSUNNY   81  64  57 E5        30.07S
6HR MIN TEMP:  81; 6HR MAX TEMP:  85;

GREENWOOD *+   PTSUNNY   75  63  64 CALM      30.07F
INDIANAPOLIS   PTSUNNY   77  60  55 SE6       30.05S
6HR MIN TEMP:  77; 6HR MAX TEMP:  81;

-EAGLE CREEK   PTSUNNY   78  60  53 S5        30.05F
6HR MIN TEMP:  78; 6HR MAX TEMP:  81;

KOKOMO *+      PTSUNNY   79  63  57 SE6       30.05S
6HR MIN TEMP:  79; 6HR MAX TEMP:  84;

MARION +       PTSUNNY   75  62  64 CALM      30.08S
MT COMFORT *+  PTSUNNY   73  68  83 CALM      30.07S
SHELBYVILLE    PTSUNNY   77  67  71 CALM      30.06S
6HR MIN TEMP:  77; 6HR MAX TEMP:  83;

ZIONSVILLE +   PTSUNNY   78  60  54 SE6       30.07F
6HR MIN TEMP:  78; 6HR MAX TEMP:  82;


$$

INZ033-034-041-042-049-050-058-059-060100-
EAST CENTRAL INDIANA

CITY           SKY/WX    TMP DP  RH WIND       PRES   REMARKS
MUNCIE         MOSUNNY   77  58  51 S5        30.07S
6HR MIN TEMP:  77; 6HR MAX TEMP:  82;


$$

INZ060-061-067>069-081>083-085>088-060100-
SOUTHWEST INDIANA

CITY           SKY/WX    TMP DP  RH WIND       PRES   REMARKS
EVANSVILLE     PTSUNNY   82  69  64 E3        30.02S HAZE
6HR MIN TEMP:  81; 6HR MAX TEMP:  85;

HUNTINGBURG *+ MOSUNNY   79  70  73 E6        30.04R
6HR MIN TEMP:  79; 6HR MAX TEMP:  82;

WASHINGTON +   MOSUNNY   80  66  62 CALM      30.03S
6HR MIN TEMP:  80; 6HR MAX TEMP:  83;


$$

INZ062-063-066-070>080-084-089>092-060100-
SOUTH CENTRAL AND SOUTHEAST INDIANA

CITY           SKY/WX    TMP DP  RH WIND       PRES   REMARKS
BLOOMINGTON    PTSUNNY   79  66  64 SE5       30.05F
6HR MIN TEMP:  79; 6HR MAX TEMP:  83;

MADISON *+     MOSUNNY   73  61  64 CALM      30.09S
NORTH VERNON + CLOUDY    77  63  61 CALM      30.08S HAZE
SEYMOUR +      MOSUNNY   77  66  69 SE5       30.05F

$$




USA.gov is the U.S. government's official web portal to all federal, state and local government web resources and services.